Time,TemperatureF,DewpointF,PressureIn,WindDirection,WindDirectionDegrees,WindSpeedMPH,WindSpeedGustMPH,Humidity,HourlyPrecipIn,Conditions,Clouds,dailyrainin,SoftwareType,DateUTC
2013-09-20 00:02:00,66.1,66.1,29.80,SW,228,2.5,4.6,100,0.00,RA,,0.00,WeatherDisplay:10.37,2013-09-20 05:02:00,
2013-09-20 00:07:00,66.1,66.1,29.79,South,184,3.6,6.9,100,0.00,RA,,0.00,WeatherDisplay:10.37,2013-09-20 05:07:00,
2013-09-20 00:12:00,66.0,66.0,29.78,South,188,4.0,6.9,100,0.00,SCT,,0.00,WeatherDisplay:10.37,2013-09-20 05:12:00,
2013-09-20 00:17:00,66.0,66.0,29.80,WSW,239,3.4,5.8,100,0.00,SCT,,0.00,WeatherDisplay:10.37,2013-09-20 05:17:00,
2013-09-20 00:22:00,66.1,66.1,29.81,SE,144,3.1,6.9,100,0.00,SCT,,0.00,WeatherDisplay:10.37,2013-09-20 05:22:00,
2013-09-20 00:27:00,66.1,66.1,29.80,SW,236,3.8,6.9,100,0.00,SCT,,0.00,WeatherDisplay:10.37,2013-09-20 05:27:00,
2013-09-20 00:32:00,66.0,66.0,29.80,SW,235,4.4,9.2,100,0.00,SCT,,0.00,WeatherDisplay:10.37,2013-09-20 05:32:00,
2013-09-20 00:37:00,65.9,65.9,29.81,SW,230,4.7,6.9,100,0.00,SCT,,0.00,WeatherDisplay:10.37,2013-09-20 05:37:00,
2013-09-20 00:42:00,65.8,65.8,29.81,ESE,122,2.4,6.9,100,0.00,SCT,,0.00,WeatherDisplay:10.37,2013-09-20 05:42:00,
2013-09-20 00:47:00,65.7,65.7,29.80,SSW,195,3.2,9.2,100,0.00,SCT,,0.00,WeatherDisplay:10.37,2013-09-20 05:47:00,
2013-09-20 00:52:00,65.7,65.7,29.80,WSW,257,4.7,8.1,100,0.00,SCT,,0.00,WeatherDisplay:10.37,2013-09-20 05:52:00,
2013-09-20 00:57:00,65.6,65.6,29.79,WSW,242,2.7,6.9,100,0.00,SCT,,0.00,WeatherDisplay:10.37,2013-09-20 05:57:00,
2013-09-20 01:02:00,65.6,65.6,29.80,West,274,4.8,5.8,100,0.00,SCT,,0.00,WeatherDisplay:10.37,2013-09-20 06:02:00,
2013-09-20 01:07:00,65.4,65.4,29.80,NE,41,0.0,0.0,100,0.00,SCT,,0.00,WeatherDisplay:10.37,2013-09-20 06:07:00,
2013-09-20 01:12:00,65.6,65.6,29.80,SW,225,0.6,2.3,100,0.00,SCT,,0.00,WeatherDisplay:10.37,2013-09-20 06:12:00,
2013-09-20 01:17:00,65.5,65.5,29.80,WSW,250,2.2,4.6,100,0.00,SCT,,0.00,WeatherDisplay:10.37,2013-09-20 06:17:00,
2013-09-20 01:22:00,65.5,65.5,29.80,West,259,5.3,8.1,100,0.00,SCT,,0.00,WeatherDisplay:10.37,2013-09-20 06:22:00,
2013-09-20 01:27:00,65.4,65.4,29.80,SSW,196,5.5,8.8,100,0.00,SCT,,0.00,WeatherDisplay:10.37,2013-09-20 06:27:00,
2013-09-20 01:32:00,65.5,65.5,29.79,SSW,199,3.0,6.9,100,0.00,SCT,,0.00,WeatherDisplay:10.37,2013-09-20 06:32:00,
2013-09-20 01:37:00,65.4,65.4,29.79,West,277,2.7,4.6,100,0.00,SCT,,0.00,WeatherDisplay:10.37,2013-09-20 06:37:00,
2013-09-20 01:42:00,65.5,65.5,29.79,SW,222,2.3,4.6,100,0.00,SCT,,0.00,WeatherDisplay:10.37,2013-09-20 06:42:00,
2013-09-20 01:47:00,65.4,65.4,29.79,East,95,2.7,5.8,100,0.00,SCT,,0.00,WeatherDisplay:10.37,2013-09-20 06:47:00,
2013-09-20 01:52:00,65.4,65.4,29.79,SW,229,1.1,2.4,100,0.00,SCT,,0.00,WeatherDisplay:10.37,2013-09-20 06:52:00,
2013-09-20 01:57:00,65.5,65.5,29.79,SW,216,3.9,6.9,100,0.00,SCT,,0.00,WeatherDisplay:10.37,2013-09-20 06:57:00,
2013-09-20 02:02:00,65.4,65.4,29.79,West,263,4.0,5.8,100,0.00,BKN,,0.00,WeatherDisplay:10.37,2013-09-20 07:02:00,
2013-09-20 02:07:00,65.4,65.4,29.79,WSW,253,4.5,7.1,100,0.00,BKN,,0.00,WeatherDisplay:10.37,2013-09-20 07:07:00,
2013-09-20 02:12:00,65.5,65.5,29.78,SW,229,4.4,5.8,100,0.00,BKN,,0.00,WeatherDisplay:10.37,2013-09-20 07:12:00,
2013-09-20 02:17:00,65.4,65.4,29.78,SW,215,2.1,6.1,100,0.00,BKN,,0.00,WeatherDisplay:10.37,2013-09-20 07:17:00,
2013-09-20 02:22:00,65.4,65.4,29.78,WSW,243,4.8,9.2,100,0.00,BKN,,0.00,WeatherDisplay:10.37,2013-09-20 07:22:00,
2013-09-20 02:27:00,65.4,65.4,29.77,WSW,250,5.4,9.2,100,0.00,BKN,,0.00,WeatherDisplay:10.37,2013-09-20 07:27:00,
2013-09-20 02:32:00,65.5,65.5,29.77,WNW,297,0.6,2.3,100,0.00,BKN,,0.00,WeatherDisplay:10.37,2013-09-20 07:32:00,
2013-09-20 02:37:00,65.5,65.5,29.77,WSW,237,5.4,9.2,100,0.00,BKN,,0.00,WeatherDisplay:10.37,2013-09-20 07:37:00,
2013-09-20 02:42:00,65.6,65.6,29.76,WSW,246,2.9,5.8,100,0.00,BKN,,0.00,WeatherDisplay:10.37,2013-09-20 07:42:00,
2013-09-20 02:47:00,65.7,65.7,29.76,WNW,291,3.6,8.1,100,0.00,BKN,,0.00,WeatherDisplay:10.37,2013-09-20 07:47:00,
2013-09-20 02:52:00,65.6,65.6,29.77,SW,233,5.3,10.4,100,0.00,BKN,,0.00,WeatherDisplay:10.37,2013-09-20 07:52:00,
2013-09-20 02:57:00,65.7,65.7,29.76,South,189,3.8,6.9,100,0.00,BKN,,0.00,WeatherDisplay:10.37,2013-09-20 07:57:00,
2013-09-20 03:02:00,65.7,65.7,29.76,WNW,285,1.3,3.5,100,0.00,BKN,,0.00,WeatherDisplay:10.37,2013-09-20 08:02:00,
2013-09-20 03:07:00,65.7,65.7,29.76,WSW,256,5.5,9.2,100,0.00,BKN,,0.00,WeatherDisplay:10.37,2013-09-20 08:07:00,
2013-09-20 03:12:00,65.8,65.8,29.76,WSW,254,1.5,5.0,100,0.00,BKN,,0.00,WeatherDisplay:10.37,2013-09-20 08:12:00,
2013-09-20 03:17:00,65.8,65.8,29.76,WSW,249,5.2,9.2,100,0.00,BKN,,0.00,WeatherDisplay:10.37,2013-09-20 08:17:00,
2013-09-20 03:22:00,65.7,65.7,29.76,SW,222,3.0,5.8,100,0.00,BKN,,0.00,WeatherDisplay:10.37,2013-09-20 08:22:00,
2013-09-20 03:27:00,65.8,65.8,29.75,WSW,254,3.6,6.9,100,0.00,BKN,,0.00,WeatherDisplay:10.37,2013-09-20 08:27:00,
2013-09-20 03:32:00,65.8,65.8,29.76,SSW,212,1.1,4.6,100,0.00,BKN,,0.00,WeatherDisplay:10.37,2013-09-20 08:32:00,
2013-09-20 03:37:00,65.9,65.9,29.76,West,267,4.1,4.6,100,0.00,BKN,,0.00,WeatherDisplay:10.37,2013-09-20 08:37:00,
2013-09-20 03:42:00,65.8,65.8,29.76,WSW,253,4.6,8.1,100,0.00,BKN,,0.00,WeatherDisplay:10.37,2013-09-20 08:42:00,
2013-09-20 03:47:00,65.8,65.8,29.75,West,276,2.5,5.8,100,0.00,BKN,,0.00,WeatherDisplay:10.37,2013-09-20 08:47:00,
2013-09-20 03:52:00,65.7,65.7,29.75,WSW,254,3.8,8.1,100,0.00,BKN,,0.00,WeatherDisplay:10.37,2013-09-20 08:52:00,
2013-09-20 03:57:00,65.7,65.7,29.75,SW,218,4.2,8.1,100,0.00,BKN,,0.00,WeatherDisplay:10.37,2013-09-20 08:57:00,
2013-09-20 04:02:00,65.7,65.7,29.75,West,276,2.7,4.6,100,0.00,OVC,,0.00,WeatherDisplay:10.37,2013-09-20 09:02:00,
2013-09-20 04:07:00,65.7,65.7,29.75,SW,236,3.5,9.2,100,0.00,OVC,,0.00,WeatherDisplay:10.37,2013-09-20 09:07:00,
2013-09-20 04:12:00,65.7,65.7,29.75,West,264,6.4,9.2,100,0.00,OVC,,0.00,WeatherDisplay:10.37,2013-09-20 09:12:00,
2013-09-20 04:17:00,65.7,65.7,29.75,WSW,256,2.2,9.2,100,0.00,OVC,,0.00,WeatherDisplay:10.37,2013-09-20 09:17:00,
2013-09-20 04:22:00,65.5,65.5,29.75,NW,322,4.1,7.1,100,0.00,OVC,,0.00,WeatherDisplay:10.37,2013-09-20 09:22:00,
2013-09-20 04:27:00,65.5,65.5,29.75,West,263,4.1,8.1,100,0.00,OVC,,0.00,WeatherDisplay:10.37,2013-09-20 09:27:00,
2013-09-20 04:32:00,65.6,65.6,29.74,NNW,340,2.7,9.2,100,0.00,OVC,,0.00,WeatherDisplay:10.37,2013-09-20 09:32:00,
2013-09-20 04:37:00,65.7,65.7,29.74,West,281,4.4,8.1,100,0.00,OVC,,0.00,WeatherDisplay:10.37,2013-09-20 09:37:00,
2013-09-20 04:42:00,65.7,65.7,29.74,West,270,4.4,6.9,100,0.00,OVC,,0.00,WeatherDisplay:10.37,2013-09-20 09:42:00,
2013-09-20 04:47:00,65.7,65.7,29.75,WSW,244,2.3,8.1,100,0.00,OVC,,0.00,WeatherDisplay:10.37,2013-09-20 09:47:00,
2013-09-20 04:52:00,65.7,65.7,29.75,WNW,285,0.7,6.9,100,0.00,OVC,,0.00,WeatherDisplay:10.37,2013-09-20 09:52:00,
2013-09-20 04:57:00,65.8,65.8,29.75,West,273,3.8,9.2,100,0.00,OVC,,0.00,WeatherDisplay:10.37,2013-09-20 09:57:00,
2013-09-20 05:02:00,65.7,65.7,29.75,SW,218,6.0,9.2,100,0.00,OVC,,0.00,WeatherDisplay:10.37,2013-09-20 10:02:00,
2013-09-20 05:07:00,65.7,65.7,29.75,SW,229,3.9,8.1,100,0.00,OVC,,0.00,WeatherDisplay:10.37,2013-09-20 10:07:00,
2013-09-20 05:12:00,65.9,65.9,29.75,SW,219,2.5,6.9,100,0.00,OVC,,0.00,WeatherDisplay:10.37,2013-09-20 10:12:00,
2013-09-20 05:17:00,65.9,65.9,29.75,WSW,239,4.2,6.9,100,0.00,OVC,,0.00,WeatherDisplay:10.37,2013-09-20 10:17:00,
2013-09-20 05:22:00,65.9,65.9,29.75,SSW,195,2.4,5.8,100,0.00,OVC,,0.00,WeatherDisplay:10.37,2013-09-20 10:22:00,
2013-09-20 05:27:00,66.0,66.0,29.76,WSW,243,3.8,7.0,100,0.00,OVC,,0.00,WeatherDisplay:10.37,2013-09-20 10:27:00,
2013-09-20 05:32:00,65.9,65.9,29.76,SSW,208,4.2,6.9,100,0.00,OVC,,0.00,WeatherDisplay:10.37,2013-09-20 10:32:00,
2013-09-20 05:37:00,65.9,65.9,29.76,WSW,256,4.5,8.1,100,0.00,OVC,,0.00,WeatherDisplay:10.37,2013-09-20 10:37:00,
2013-09-20 05:42:00,66.1,66.1,29.76,West,273,3.9,6.9,100,0.00,OVC,,0.00,WeatherDisplay:10.37,2013-09-20 10:42:00,
2013-09-20 05:47:00,66.1,66.1,29.77,WNW,297,4.9,6.9,100,0.00,OVC,,0.00,WeatherDisplay:10.37,2013-09-20 10:47:00,
2013-09-20 05:52:00,66.1,66.1,29.77,WSW,244,4.8,8.7,100,0.00,OVC,,0.00,WeatherDisplay:10.37,2013-09-20 10:52:00,
2013-09-20 05:57:00,66.1,66.1,29.77,WSW,242,1.9,3.5,100,0.00,OVC,,0.00,WeatherDisplay:10.37,2013-09-20 10:57:00,
2013-09-20 06:02:00,66.2,66.2,29.77,West,260,3.4,6.9,100,0.00,OVC,,0.00,WeatherDisplay:10.37,2013-09-20 11:02:00,
2013-09-20 06:07:00,66.2,66.2,29.77,SW,222,2.3,5.8,100,0.00,OVC,,0.00,WeatherDisplay:10.37,2013-09-20 11:07:00,
2013-09-20 06:12:00,66.1,66.1,29.77,West,277,4.4,8.1,100,0.00,OVC,,0.00,WeatherDisplay:10.37,2013-09-20 11:12:00,
2013-09-20 06:17:00,66.1,66.1,29.77,WSW,254,1.1,5.6,100,0.00,OVC,,0.00,WeatherDisplay:10.37,2013-09-20 11:17:00,
2013-09-20 06:22:00,66.1,66.1,29.77,WSW,254,4.5,6.9,100,0.00,OVC,,0.00,WeatherDisplay:10.37,2013-09-20 11:22:00,
2013-09-20 06:27:00,66.2,66.2,29.77,SW,229,3.3,5.8,100,0.00,OVC,,0.00,WeatherDisplay:10.37,2013-09-20 11:27:00,
2013-09-20 06:32:00,66.1,66.1,29.78,West,260,4.0,8.1,100,0.00,OVC,,0.00,WeatherDisplay:10.37,2013-09-20 11:32:00,
2013-09-20 06:37:00,65.9,65.9,29.78,SW,229,5.8,8.6,100,0.00,OVC,,0.00,WeatherDisplay:10.37,2013-09-20 11:37:00,
2013-09-20 06:42:00,66.1,66.1,29.78,West,260,2.0,4.6,100,0.00,OVC,,0.00,WeatherDisplay:10.37,2013-09-20 11:42:00,
2013-09-20 06:47:00,66.0,66.0,29.79,NW,321,2.9,5.8,100,0.00,OVC,,0.00,WeatherDisplay:10.37,2013-09-20 11:47:00,
2013-09-20 06:52:00,65.9,65.9,29.79,WNW,301,3.1,6.6,100,0.00,OVC,,0.00,WeatherDisplay:10.37,2013-09-20 11:52:00,
2013-09-20 06:57:00,65.9,65.9,29.79,NW,305,4.9,8.1,100,0.00,OVC,,0.00,WeatherDisplay:10.37,2013-09-20 11:57:00,
2013-09-20 07:02:00,65.8,65.8,29.79,WNW,283,2.4,4.6,100,0.00,OVC,,0.00,WeatherDisplay:10.37,2013-09-20 12:02:00,
2013-09-20 07:07:00,65.7,65.7,29.79,West,281,4.6,6.9,100,0.00,OVC,,0.00,WeatherDisplay:10.37,2013-09-20 12:07:00,
2013-09-20 07:12:00,65.8,65.8,29.80,SW,220,3.0,4.6,100,0.00,OVC,,0.00,WeatherDisplay:10.37,2013-09-20 12:12:00,
2013-09-20 07:17:00,65.7,65.7,29.80,NW,305,2.6,8.1,100,0.00,OVC,,0.00,WeatherDisplay:10.37,2013-09-20 12:17:00,
2013-09-20 07:22:00,65.7,65.7,29.80,NW,308,4.6,6.9,100,0.00,OVC,,0.00,WeatherDisplay:10.37,2013-09-20 12:22:00,
2013-09-20 07:27:00,65.8,65.8,29.80,NW,309,2.2,5.8,100,0.00,OVC,,0.00,WeatherDisplay:10.37,2013-09-20 12:27:00,
2013-09-20 07:32:00,65.7,65.7,29.80,WNW,292,2.4,3.2,100,0.00,OVC,,0.00,WeatherDisplay:10.37,2013-09-20 12:32:00,
2013-09-20 07:37:00,65.8,65.8,29.80,West,271,1.3,6.9,100,0.00,OVC,,0.00,WeatherDisplay:10.37,2013-09-20 12:37:00,
2013-09-20 07:42:00,65.9,65.9,29.80,WSW,257,1.9,6.5,100,0.00,OVC,,0.00,WeatherDisplay:10.37,2013-09-20 12:42:00,
2013-09-20 07:47:00,65.8,65.8,29.80,WNW,298,3.0,6.9,100,0.00,OVC,,0.00,WeatherDisplay:10.37,2013-09-20 12:47:00,
2013-09-20 07:52:00,65.6,65.6,29.80,NW,307,5.0,7.0,100,0.00,OVC,,0.00,WeatherDisplay:10.37,2013-09-20 12:52:00,
2013-09-20 07:57:00,65.6,65.6,29.80,WSW,239,2.9,5.8,100,0.00,OVC,,0.00,WeatherDisplay:10.37,2013-09-20 12:57:00,
2013-09-20 08:02:00,65.6,65.6,29.81,WSW,256,2.5,8.1,100,0.00,OVC,,0.00,WeatherDisplay:10.37,2013-09-20 13:02:00,
2013-09-20 08:07:00,65.7,65.7,29.81,WSW,252,3.0,5.8,100,0.00,OVC,,0.00,WeatherDisplay:10.37,2013-09-20 13:07:00,
2013-09-20 08:12:00,65.6,65.6,29.81,WSW,254,6.1,8.1,100,0.00,OVC,,0.00,WeatherDisplay:10.37,2013-09-20 13:12:00,
2013-09-20 08:17:00,65.7,65.7,29.81,West,280,3.6,6.9,100,0.00,OVC,,0.00,WeatherDisplay:10.37,2013-09-20 13:17:00,
2013-09-20 08:22:00,65.8,65.8,29.81,West,273,4.1,6.9,100,0.00,OVC,,0.00,WeatherDisplay:10.37,2013-09-20 13:22:00,
2013-09-20 08:27:00,66.0,66.0,29.81,West,273,2.2,5.8,100,0.00,OVC,,0.00,WeatherDisplay:10.37,2013-09-20 13:27:00,
2013-09-20 08:32:00,65.9,65.9,29.81,NW,325,5.1,9.2,100,0.00,OVC,,0.00,WeatherDisplay:10.37,2013-09-20 13:32:00,
2013-09-20 08:37:00,65.9,65.9,29.81,WNW,297,3.7,9.2,100,0.00,OVC,,0.00,WeatherDisplay:10.37,2013-09-20 13:37:00,
2013-09-20 08:42:00,66.0,66.0,29.81,SSW,201,3.4,4.6,100,0.00,OVC,,0.00,WeatherDisplay:10.37,2013-09-20 13:42:00,
2013-09-20 08:47:00,66.0,66.0,29.82,SSW,209,4.0,6.9,100,0.00,OVC,,0.00,WeatherDisplay:10.37,2013-09-20 13:47:00,
2013-09-20 08:52:00,66.0,66.0,29.82,West,278,2.5,8.1,100,0.00,OVC,,0.00,WeatherDisplay:10.37,2013-09-20 13:52:00,
2013-09-20 08:57:00,65.9,65.9,29.82,NW,314,4.9,7.0,100,0.00,OVC,,0.00,WeatherDisplay:10.37,2013-09-20 13:57:00,
2013-09-20 09:02:00,65.7,65.7,29.82,WNW,294,5.3,10.4,100,0.00,OVC,,0.00,WeatherDisplay:10.37,2013-09-20 14:02:00,
2013-09-20 09:07:00,65.7,65.7,29.82,WSW,250,3.0,6.3,100,0.00,OVC,,0.00,WeatherDisplay:10.37,2013-09-20 14:07:00,
2013-09-20 09:12:00,65.8,65.8,29.82,WSW,247,4.1,8.1,100,0.00,OVC,,0.00,WeatherDisplay:10.37,2013-09-20 14:12:00,
2013-09-20 09:17:00,65.7,65.7,29.82,SW,226,4.7,8.1,100,0.00,OVC,,0.00,WeatherDisplay:10.37,2013-09-20 14:17:00,
2013-09-20 09:22:00,65.7,65.7,29.82,WNW,284,3.4,4.7,100,0.00,OVC,,0.00,WeatherDisplay:10.37,2013-09-20 14:22:00,
2013-09-20 09:27:00,65.7,65.7,29.82,South,191,5.8,9.2,100,0.00,OVC,,0.00,WeatherDisplay:10.37,2013-09-20 14:27:00,
2013-09-20 09:32:00,65.6,65.6,29.82,WSW,240,5.6,9.2,100,0.00,OVC,,0.00,WeatherDisplay:10.37,2013-09-20 14:32:00,
2013-09-20 09:37:00,65.7,65.7,29.82,NW,321,2.4,4.6,100,0.00,OVC,,0.00,WeatherDisplay:10.37,2013-09-20 14:37:00,
2013-09-20 09:42:00,65.7,65.7,29.82,West,277,6.2,6.9,100,0.00,OVC,,0.00,WeatherDisplay:10.37,2013-09-20 14:42:00,
2013-09-20 09:47:00,65.6,65.6,29.82,West,261,6.3,9.2,100,0.00,OVC,,0.00,WeatherDisplay:10.37,2013-09-20 14:47:00,
2013-09-20 09:52:00,65.4,65.4,29.82,West,259,5.9,9.2,100,0.00,OVC,,0.00,WeatherDisplay:10.37,2013-09-20 14:52:00,
2013-09-20 09:57:00,65.6,65.6,29.82,SSE,151,2.0,6.9,100,0.00,OVC,,0.00,WeatherDisplay:10.37,2013-09-20 14:57:00,
2013-09-20 10:02:00,65.9,65.9,29.82,West,274,3.3,8.3,100,0.00,SCT,,0.00,WeatherDisplay:10.37,2013-09-20 15:02:00,
2013-09-20 10:07:00,66.0,66.0,29.83,North,356,4.6,6.9,100,0.00,SCT,,0.00,WeatherDisplay:10.37,2013-09-20 15:07:00,
2013-09-20 10:12:00,65.9,65.9,29.82,SW,222,4.3,9.2,100,0.00,SCT,,0.00,WeatherDisplay:10.37,2013-09-20 15:12:00,
2013-09-20 10:17:00,65.8,65.8,29.82,WNW,302,3.1,5.8,100,0.00,SCT,,0.00,WeatherDisplay:10.37,2013-09-20 15:17:00,
2013-09-20 10:22:00,65.4,64.2,29.82,NW,318,5.4,8.1,96,0.00,SCT,,0.00,WeatherDisplay:10.37,2013-09-20 15:22:00,
2013-09-20 10:27:00,66.1,65.2,29.82,WNW,292,4.2,6.9,97,0.00,SCT,,0.00,WeatherDisplay:10.37,2013-09-20 15:27:00,
2013-09-20 10:32:00,66.4,64.9,29.82,SW,228,4.0,6.9,95,0.00,SCT,,0.00,WeatherDisplay:10.37,2013-09-20 15:32:00,
2013-09-20 10:37:00,66.4,63.7,29.82,WNW,287,5.9,9.2,91,0.00,SCT,,0.00,WeatherDisplay:10.37,2013-09-20 15:37:00,
2013-09-20 10:42:00,66.3,63.6,29.82,SW,216,5.6,10.4,91,0.00,SCT,,0.00,WeatherDisplay:10.37,2013-09-20 15:42:00,
2013-09-20 10:47:00,66.1,63.1,29.82,WNW,283,8.5,12.7,90,0.00,SCT,,0.00,WeatherDisplay:10.37,2013-09-20 15:47:00,
2013-09-20 10:52:00,66.1,63.4,29.82,South,189,7.3,8.1,91,0.00,SCT,,0.00,WeatherDisplay:10.37,2013-09-20 15:52:00,
2013-09-20 10:57:00,66.2,63.8,29.82,West,260,5.1,8.1,92,0.00,SCT,,0.00,WeatherDisplay:10.37,2013-09-20 15:57:00,
2013-09-20 11:02:00,66.4,64.3,29.82,WSW,256,2.6,8.1,93,0.00,BKN,,0.00,WeatherDisplay:10.37,2013-09-20 16:02:00,
2013-09-20 11:07:00,66.3,63.9,29.82,West,266,4.8,10.4,92,0.00,BKN,,0.00,WeatherDisplay:10.37,2013-09-20 16:07:00,
2013-09-20 11:12:00,66.9,64.8,29.82,WSW,243,2.8,6.9,93,0.00,BKN,,0.00,WeatherDisplay:10.37,2013-09-20 16:12:00,
2013-09-20 11:17:00,66.8,62.8,29.82,NW,321,7.6,9.2,87,0.00,BKN,,0.00,WeatherDisplay:10.37,2013-09-20 16:17:00,
2013-09-20 11:22:00,66.9,63.2,29.82,West,264,5.7,5.8,88,0.00,BKN,,0.00,WeatherDisplay:10.37,2013-09-20 16:22:00,
2013-09-20 11:27:00,66.8,62.8,29.82,SSW,212,3.5,11.5,87,0.00,BKN,,0.00,WeatherDisplay:10.37,2013-09-20 16:27:00,
2013-09-20 11:32:00,66.7,63.0,29.82,SW,229,4.5,8.1,88,0.00,BKN,,0.00,WeatherDisplay:10.37,2013-09-20 16:32:00,
2013-09-20 11:37:00,66.7,61.7,29.82,SW,232,5.4,15.0,84,0.00,BKN,,0.00,WeatherDisplay:10.37,2013-09-20 16:37:00,
2013-09-20 11:42:00,67.3,62.3,29.82,WSW,252,4.0,8.1,84,0.00,BKN,,0.00,WeatherDisplay:10.37,2013-09-20 16:42:00,
2013-09-20 11:48:00,67.2,60.1,29.82,NW,319,7.7,11.5,78,0.00,BKN,,0.00,WeatherDisplay:10.37,2013-09-20 16:48:00,
2013-09-20 11:53:00,67.0,59.5,29.81,West,260,7.3,10.4,77,0.00,BKN,,0.00,WeatherDisplay:10.37,2013-09-20 16:53:00,
2013-09-20 11:58:00,67.0,58.8,29.82,NW,315,8.5,15.0,75,0.00,BKN,,0.00,WeatherDisplay:10.37,2013-09-20 16:58:00,
2013-09-20 12:03:00,67.2,59.7,29.81,WSW,256,2.9,7.0,77,0.00,BKN,,0.00,WeatherDisplay:10.37,2013-09-20 17:03:00,
2013-09-20 12:08:00,67.5,59.3,29.81,WNW,285,5.7,10.4,75,0.00,BKN,,0.00,WeatherDisplay:10.37,2013-09-20 17:08:00,
2013-09-20 12:13:00,67.1,59.3,29.81,NNW,340,6.8,9.2,76,0.00,BKN,,0.00,WeatherDisplay:10.37,2013-09-20 17:13:00,
2013-09-20 12:18:00,66.7,59.3,29.81,NW,324,3.6,5.8,77,0.00,BKN,,0.00,WeatherDisplay:10.37,2013-09-20 17:18:00,
2013-09-20 12:23:00,66.5,58.7,29.81,North,360,4.7,8.1,76,0.00,BKN,,0.00,WeatherDisplay:10.37,2013-09-20 17:23:00,
2013-09-20 12:28:00,67.1,59.3,29.81,West,277,4.4,6.9,76,0.00,BKN,,0.00,WeatherDisplay:10.37,2013-09-20 17:28:00,
2013-09-20 12:33:00,67.2,57.5,29.82,NW,318,6.9,15.0,71,0.00,BKN,,0.00,WeatherDisplay:10.37,2013-09-20 17:33:00,
2013-09-20 12:38:00,66.6,56.9,29.82,NW,319,5.5,12.7,71,0.00,BKN,,0.00,WeatherDisplay:10.37,2013-09-20 17:38:00,
2013-09-20 12:43:00,66.0,57.1,29.82,NW,315,6.8,12.7,73,0.00,BKN,,0.00,WeatherDisplay:10.37,2013-09-20 17:43:00,
2013-09-20 12:48:00,65.3,57.9,29.82,WNW,302,7.1,12.7,77,0.00,BKN,,0.00,WeatherDisplay:10.37,2013-09-20 17:48:00,
2013-09-20 12:53:00,64.1,57.8,29.82,WNW,291,8.2,13.8,80,0.00,BKN,,0.00,WeatherDisplay:10.37,2013-09-20 17:53:00,
2013-09-20 12:58:00,63.9,59.0,29.82,WNW,301,6.2,9.2,84,0.00,BKN,,0.00,WeatherDisplay:10.37,2013-09-20 17:58:00,
2013-09-20 13:03:00,63.8,58.5,29.83,WNW,301,4.8,10.4,83,0.00,BKN,,0.00,WeatherDisplay:10.37,2013-09-20 18:03:00,
2013-09-20 13:08:00,63.7,58.1,29.82,NW,319,5.4,10.4,82,0.00,BKN,,0.00,WeatherDisplay:10.37,2013-09-20 18:08:00,
2013-09-20 13:13:00,64.0,58.4,29.82,NW,309,4.8,10.5,82,0.00,BKN,,0.00,WeatherDisplay:10.37,2013-09-20 18:13:00,
2013-09-20 13:18:00,64.1,56.7,29.82,West,280,4.9,8.1,77,0.00,BKN,,0.00,WeatherDisplay:10.37,2013-09-20 18:18:00,
2013-09-20 13:23:00,64.3,56.6,29.82,WNW,294,4.1,7.3,76,0.00,BKN,,0.00,WeatherDisplay:10.37,2013-09-20 18:23:00,
2013-09-20 13:28:00,62.8,56.2,29.82,NNW,338,8.2,12.7,79,0.00,BKN,,0.00,WeatherDisplay:10.37,2013-09-20 18:28:00,
2013-09-20 13:33:00,62.6,56.7,29.82,WNW,301,5.2,9.2,81,0.00,BKN,,0.00,WeatherDisplay:10.37,2013-09-20 18:33:00,
2013-09-20 13:38:00,62.5,55.9,29.82,WNW,294,4.6,8.1,79,0.00,BKN,,0.00,WeatherDisplay:10.37,2013-09-20 18:38:00,
2013-09-20 13:43:00,62.3,54.6,29.82,NW,321,7.5,13.8,76,0.00,BKN,,0.00,WeatherDisplay:10.37,2013-09-20 18:43:00,
2013-09-20 13:48:00,62.7,55.7,29.82,NW,309,5.7,10.4,78,0.00,BKN,,0.00,WeatherDisplay:10.37,2013-09-20 18:48:00,
2013-09-20 13:53:00,62.7,55.0,29.82,West,268,7.8,15.0,76,0.00,BKN,,0.00,WeatherDisplay:10.37,2013-09-20 18:53:00,
2013-09-20 13:58:00,63.0,54.2,29.82,NNW,335,6.9,10.4,73,0.00,BKN,,0.00,WeatherDisplay:10.37,2013-09-20 18:58:00,
2013-09-20 14:03:00,62.9,53.4,29.82,NW,304,9.3,15.0,71,0.00,OVC,,0.00,WeatherDisplay:10.37,2013-09-20 19:03:00,
2013-09-20 14:08:00,63.0,54.2,29.82,NNW,346,4.4,8.1,73,0.00,OVC,,0.00,WeatherDisplay:10.37,2013-09-20 19:08:00,
2013-09-20 14:13:00,63.4,55.0,29.82,West,281,5.9,8.1,74,0.00,OVC,,0.00,WeatherDisplay:10.37,2013-09-20 19:13:00,
2013-09-20 14:18:00,63.7,55.6,29.82,NW,319,4.3,10.4,75,0.00,OVC,,0.00,WeatherDisplay:10.37,2013-09-20 19:18:00,
2013-09-20 14:23:00,63.2,55.1,29.82,WNW,292,6.1,10.4,75,0.00,OVC,,0.00,WeatherDisplay:10.37,2013-09-20 19:23:00,
2013-09-20 14:28:00,62.9,54.5,29.82,WNW,284,6.3,9.2,74,0.00,OVC,,0.00,WeatherDisplay:10.37,2013-09-20 19:28:00,
2013-09-20 14:33:00,62.8,54.4,29.82,SSW,211,6.3,10.4,74,0.00,OVC,,0.00,WeatherDisplay:10.37,2013-09-20 19:33:00,
2013-09-20 14:38:00,63.3,54.5,29.82,West,260,5.1,13.8,73,0.00,OVC,,0.00,WeatherDisplay:10.37,2013-09-20 19:38:00,
2013-09-20 14:43:00,63.2,53.6,29.82,WNW,301,7.0,11.5,71,0.00,OVC,,0.00,WeatherDisplay:10.37,2013-09-20 19:43:00,
2013-09-20 14:48:00,63.3,53.7,29.82,West,274,6.0,15.0,71,0.00,OVC,,0.00,WeatherDisplay:10.37,2013-09-20 19:48:00,
2013-09-20 14:53:00,63.4,52.7,29.83,WSW,253,5.7,10.4,68,0.00,OVC,,0.00,WeatherDisplay:10.37,2013-09-20 19:53:00,
2013-09-20 14:58:00,63.0,51.9,29.83,West,259,7.8,12.7,67,0.00,OVC,,0.00,WeatherDisplay:10.37,2013-09-20 19:58:00,
2013-09-20 15:03:00,63.2,52.5,29.83,West,263,4.6,15.0,68,0.00,OVC,,0.00,WeatherDisplay:10.37,2013-09-20 20:03:00,
2013-09-20 15:08:00,63.9,53.1,29.82,West,273,7.6,10.9,68,0.00,OVC,,0.00,WeatherDisplay:10.37,2013-09-20 20:08:00,
2013-09-20 15:13:00,63.8,52.2,29.82,NW,318,5.7,11.5,66,0.00,OVC,,0.00,WeatherDisplay:10.37,2013-09-20 20:13:00,
2013-09-20 15:18:00,63.8,52.2,29.82,SW,220,5.3,8.1,66,0.00,OVC,,0.00,WeatherDisplay:10.37,2013-09-20 20:18:00,
2013-09-20 15:23:00,64.0,52.4,29.82,WSW,247,6.4,8.1,66,0.00,OVC,,0.00,WeatherDisplay:10.37,2013-09-20 20:23:00,
2013-09-20 15:28:00,63.8,51.8,29.82,South,182,5.9,10.4,65,0.00,OVC,,0.00,WeatherDisplay:10.37,2013-09-20 20:28:00,
2013-09-20 15:33:00,63.3,51.7,29.82,NW,319,6.7,11.5,66,0.00,OVC,,0.00,WeatherDisplay:10.37,2013-09-20 20:33:00,
2013-09-20 15:38:00,63.2,51.2,29.82,NW,314,8.7,16.1,65,0.00,OVC,,0.00,WeatherDisplay:10.37,2013-09-20 20:38:00,
2013-09-20 15:43:00,63.2,52.1,29.82,SSW,192,4.6,8.1,67,0.00,OVC,,0.00,WeatherDisplay:10.37,2013-09-20 20:43:00,
2013-09-20 15:48:00,63.4,52.7,29.82,NW,315,5.9,9.2,68,0.00,OVC,,0.00,WeatherDisplay:10.37,2013-09-20 20:48:00,
2013-09-20 15:53:00,63.9,52.3,29.82,West,267,6.3,11.5,66,0.00,OVC,,0.00,WeatherDisplay:10.37,2013-09-20 20:53:00,
2013-09-20 15:58:00,64.6,52.6,29.82,West,274,5.9,11.5,65,0.00,OVC,,0.00,WeatherDisplay:10.37,2013-09-20 20:58:00,
2013-09-20 16:03:00,64.0,52.0,29.82,WNW,297,7.8,10.4,65,0.00,SCT,,0.00,WeatherDisplay:10.37,2013-09-20 21:03:00,
2013-09-20 16:08:00,63.8,52.2,29.82,NW,321,7.1,9.2,66,0.00,SCT,,0.00,WeatherDisplay:10.37,2013-09-20 21:08:00,
2013-09-20 16:13:00,63.3,52.6,29.82,SW,230,6.4,12.7,68,0.00,SCT,,0.00,WeatherDisplay:10.37,2013-09-20 21:13:00,
2013-09-20 16:18:00,63.3,53.0,29.82,WNW,301,5.4,10.4,69,0.00,SCT,,0.00,WeatherDisplay:10.37,2013-09-20 21:18:00,
2013-09-20 16:23:00,63.1,53.5,29.82,West,267,4.7,8.1,71,0.00,SCT,,0.00,WeatherDisplay:10.37,2013-09-20 21:23:00,
2013-09-20 16:28:00,63.3,53.7,29.82,WSW,257,3.3,9.4,71,0.00,SCT,,0.00,WeatherDisplay:10.37,2013-09-20 21:28:00,
2013-09-20 16:33:00,63.0,53.4,29.82,West,276,5.2,11.5,71,0.00,SCT,,0.00,WeatherDisplay:10.37,2013-09-20 21:33:00,
2013-09-20 16:38:00,63.3,53.3,29.82,WNW,284,3.6,7.6,70,0.00,SCT,,0.00,WeatherDisplay:10.37,2013-09-20 21:38:00,
2013-09-20 16:43:00,63.3,53.0,29.82,WSW,253,5.1,10.4,69,0.00,SCT,,0.00,WeatherDisplay:10.37,2013-09-20 21:43:00,
2013-09-20 16:48:00,63.0,53.1,29.82,West,263,6.9,10.4,70,0.00,SCT,,0.00,WeatherDisplay:10.37,2013-09-20 21:48:00,
2013-09-20 16:53:00,62.9,53.0,29.82,NW,309,7.3,15.0,70,0.00,SCT,,0.00,WeatherDisplay:10.37,2013-09-20 21:53:00,
2013-09-20 16:58:00,62.6,52.7,29.82,WNW,294,7.7,15.0,70,0.00,SCT,,0.00,WeatherDisplay:10.37,2013-09-20 21:58:00,
2013-09-20 17:03:00,62.6,52.7,29.82,WNW,284,6.2,12.7,70,0.00,SCT,,0.00,WeatherDisplay:10.37,2013-09-20 22:03:00,
2013-09-20 17:08:00,62.6,53.4,29.83,West,270,4.0,9.6,72,0.00,SCT,,0.00,WeatherDisplay:10.37,2013-09-20 22:08:00,
2013-09-20 17:13:00,62.3,52.4,29.82,West,266,6.6,12.7,70,0.00,SCT,,0.00,WeatherDisplay:10.37,2013-09-20 22:13:00,
2013-09-20 17:18:00,62.0,52.5,29.83,West,264,8.1,13.8,71,0.00,SCT,,0.00,WeatherDisplay:10.37,2013-09-20 22:18:00,
2013-09-20 17:23:00,62.1,52.6,29.82,North,4,5.1,6.9,71,0.00,SCT,,0.00,WeatherDisplay:10.37,2013-09-20 22:23:00,
2013-09-20 17:28:00,62.0,52.5,29.82,NW,304,5.3,15.0,71,0.00,SCT,,0.00,WeatherDisplay:10.37,2013-09-20 22:28:00,
2013-09-20 17:33:00,62.0,52.9,29.83,West,260,2.4,8.1,72,0.00,SCT,,0.00,WeatherDisplay:10.37,2013-09-20 22:33:00,
2013-09-20 17:38:00,61.9,53.1,29.83,West,280,4.7,6.9,73,0.00,SCT,,0.00,WeatherDisplay:10.37,2013-09-20 22:38:00,
2013-09-20 17:43:00,61.8,53.4,29.83,West,281,2.8,6.9,74,0.00,SCT,,0.00,WeatherDisplay:10.37,2013-09-20 22:43:00,
2013-09-20 17:48:00,61.5,53.5,29.83,West,264,3.7,5.8,75,0.00,SCT,,0.00,WeatherDisplay:10.37,2013-09-20 22:48:00,
2013-09-20 17:53:00,61.1,53.8,29.83,West,277,3.9,10.4,77,0.00,SCT,,0.00,WeatherDisplay:10.37,2013-09-20 22:53:00,
2013-09-20 17:58:00,61.0,54.1,29.83,SW,219,4.4,6.9,78,0.00,SCT,,0.00,WeatherDisplay:10.37,2013-09-20 22:58:00,
2013-09-20 18:03:00,60.9,54.0,29.83,WSW,254,4.4,9.2,78,0.00,BKN,,0.00,WeatherDisplay:10.37,2013-09-20 23:03:00,
2013-09-20 18:08:00,60.7,53.8,29.83,West,260,5.3,6.9,78,0.00,BKN,,0.00,WeatherDisplay:10.37,2013-09-20 23:08:00,
2013-09-20 18:13:00,60.6,54.0,29.83,WSW,243,4.1,5.2,79,0.00,BKN,,0.00,WeatherDisplay:10.37,2013-09-20 23:13:00,
2013-09-20 18:18:00,60.8,54.2,29.83,West,271,5.9,9.2,79,0.00,BKN,,0.00,WeatherDisplay:10.37,2013-09-20 23:18:00,
2013-09-20 18:23:00,60.4,54.2,29.83,West,271,7.4,12.7,80,0.00,BKN,,0.00,WeatherDisplay:10.37,2013-09-20 23:23:00,
2013-09-20 18:28:00,60.4,54.2,29.83,West,278,3.1,5.9,80,0.00,BKN,,0.00,WeatherDisplay:10.37,2013-09-20 23:28:00,
2013-09-20 18:33:00,60.2,54.3,29.83,SW,218,5.2,6.9,81,0.00,BKN,,0.00,WeatherDisplay:10.37,2013-09-20 23:33:00,
2013-09-20 18:38:00,60.2,54.7,29.83,West,266,3.1,11.5,82,0.00,BKN,,0.00,WeatherDisplay:10.37,2013-09-20 23:38:00,
2013-09-20 18:43:00,59.9,54.7,29.83,West,267,2.7,5.8,83,0.00,BKN,,0.00,WeatherDisplay:10.37,2013-09-20 23:43:00,
2013-09-20 18:48:00,59.7,55.2,29.83,WNW,283,3.7,6.9,85,0.00,BKN,,0.00,WeatherDisplay:10.37,2013-09-20 23:48:00,
2013-09-20 18:53:00,59.5,55.3,29.83,NNW,345,3.6,5.8,86,0.00,BKN,,0.00,WeatherDisplay:10.37,2013-09-20 23:53:00,
2013-09-20 18:58:00,59.5,55.9,29.83,NW,312,2.8,4.6,88,0.00,BKN,,0.00,WeatherDisplay:10.37,2013-09-20 23:58:00,
2013-09-20 19:03:00,59.2,56.3,29.83,West,263,4.2,5.9,90,0.00,BKN,,0.00,WeatherDisplay:10.37,2013-09-21 00:03:00,
2013-09-20 19:08:00,59.2,56.6,29.83,WNW,302,3.1,4.6,91,0.00,BKN,,0.00,WeatherDisplay:10.37,2013-09-21 00:08:00,
2013-09-20 19:13:00,58.8,56.5,29.83,NW,319,3.7,5.8,92,0.00,BKN,,0.00,WeatherDisplay:10.37,2013-09-21 00:13:00,
2013-09-20 19:18:00,58.6,56.6,29.83,SW,216,1.8,3.5,93,0.00,BKN,,0.00,WeatherDisplay:10.37,2013-09-21 00:18:00,
2013-09-20 19:23:00,58.4,56.7,29.84,WNW,290,3.9,5.8,94,0.00,BKN,,0.00,WeatherDisplay:10.37,2013-09-21 00:23:00,
2013-09-20 19:28:00,58.2,56.8,29.83,SE,143,1.2,4.6,95,0.00,BKN,,0.00,WeatherDisplay:10.37,2013-09-21 00:28:00,
2013-09-20 19:33:00,58.1,57.0,29.84,WNW,294,3.1,4.6,96,0.00,BKN,,0.00,WeatherDisplay:10.37,2013-09-21 00:33:00,
2013-09-20 19:38:00,58.0,57.2,29.84,West,264,2.9,4.6,97,0.00,BKN,,0.00,WeatherDisplay:10.37,2013-09-21 00:38:00,
2013-09-20 19:43:00,57.8,57.0,29.84,WSW,256,0.7,3.5,97,0.00,BKN,,0.00,WeatherDisplay:10.37,2013-09-21 00:43:00,
2013-09-20 19:48:00,57.8,57.2,29.84,WSW,257,2.0,4.6,98,0.00,BKN,,0.00,WeatherDisplay:10.37,2013-09-21 00:48:00,
2013-09-20 19:53:00,57.7,57.4,29.84,WNW,298,1.8,4.6,99,0.00,BKN,,0.00,WeatherDisplay:10.37,2013-09-21 00:53:00,
2013-09-20 19:58:00,57.8,57.8,29.84,WNW,294,4.8,8.1,100,0.00,BKN,,0.00,WeatherDisplay:10.37,2013-09-21 00:58:00,
2013-09-20 20:03:00,57.9,57.9,29.85,WNW,292,3.6,6.9,100,0.00,FEW,,0.00,WeatherDisplay:10.37,2013-09-21 01:03:00,
2013-09-20 20:08:00,58.1,58.1,29.85,West,274,3.2,5.8,100,0.00,FEW,,0.00,WeatherDisplay:10.37,2013-09-21 01:08:00,
2013-09-20 20:13:00,58.1,58.1,29.85,West,266,4.7,8.1,100,0.00,FEW,,0.00,WeatherDisplay:10.37,2013-09-21 01:13:00,
2013-09-20 20:18:00,58.2,58.2,29.85,WNW,292,3.7,8.1,100,0.00,FEW,,0.00,WeatherDisplay:10.37,2013-09-21 01:18:00,
2013-09-20 20:23:00,58.3,58.3,29.85,West,278,3.5,8.1,100,0.00,FEW,,0.00,WeatherDisplay:10.37,2013-09-21 01:23:00,
2013-09-20 20:28:00,58.3,58.3,29.85,WSW,244,4.3,6.9,100,0.00,FEW,,0.00,WeatherDisplay:10.37,2013-09-21 01:28:00,
2013-09-20 20:33:00,58.4,58.4,29.85,SSE,157,3.4,8.1,100,0.00,FEW,,0.00,WeatherDisplay:10.37,2013-09-21 01:33:00,
2013-09-20 20:38:00,58.4,58.4,29.85,SW,222,4.6,6.9,100,0.00,FEW,,0.00,WeatherDisplay:10.37,2013-09-21 01:38:00,
2013-09-20 20:43:00,58.5,58.5,29.85,WNW,283,1.1,3.5,100,0.00,FEW,,0.00,WeatherDisplay:10.37,2013-09-21 01:43:00,
2013-09-20 20:48:00,58.6,58.6,29.85,SSW,213,1.7,3.5,100,0.00,FEW,,0.00,WeatherDisplay:10.37,2013-09-21 01:48:00,
2013-09-20 20:53:00,58.8,58.8,29.85,West,281,1.7,5.8,100,0.00,FEW,,0.00,WeatherDisplay:10.37,2013-09-21 01:53:00,
2013-09-20 20:58:00,58.7,58.7,29.85,SW,233,1.2,4.6,100,0.00,FEW,,0.00,WeatherDisplay:10.37,2013-09-21 01:58:00,
2013-09-20 21:03:00,58.9,58.9,29.85,WNW,297,3.2,3.7,100,0.00,BKN,,0.00,WeatherDisplay:10.37,2013-09-21 02:03:00,
2013-09-20 21:08:00,58.8,58.8,29.85,SSW,209,2.5,6.9,100,0.00,BKN,,0.00,WeatherDisplay:10.37,2013-09-21 02:08:00,
2013-09-20 21:13:00,58.7,58.7,29.85,WNW,290,3.0,5.8,100,0.00,BKN,,0.00,WeatherDisplay:10.37,2013-09-21 02:13:00,
2013-09-20 21:18:00,58.8,58.8,29.85,West,263,3.3,4.6,100,0.00,BKN,,0.00,WeatherDisplay:10.37,2013-09-21 02:18:00,
2013-09-20 21:23:00,58.7,58.7,29.85,SW,232,1.8,5.8,100,0.00,BKN,,0.00,WeatherDisplay:10.37,2013-09-21 02:23:00,
2013-09-20 21:28:00,58.6,58.6,29.84,West,268,3.2,4.6,100,0.00,BKN,,0.00,WeatherDisplay:10.37,2013-09-21 02:28:00,
2013-09-20 21:33:00,58.4,58.4,29.84,West,260,3.7,5.8,100,0.00,BKN,,0.00,WeatherDisplay:10.37,2013-09-21 02:33:00,
2013-09-20 21:38:00,58.4,58.4,29.85,West,260,1.2,4.6,100,0.00,BKN,,0.00,WeatherDisplay:10.37,2013-09-21 02:38:00,
2013-09-20 21:43:00,58.4,58.4,29.85,WNW,287,2.5,3.5,100,0.00,BKN,,0.00,WeatherDisplay:10.37,2013-09-21 02:43:00,
2013-09-20 21:48:00,58.4,58.4,29.85,NNE,28,0.4,3.5,100,0.00,BKN,,0.00,WeatherDisplay:10.37,2013-09-21 02:48:00,
2013-09-20 21:53:00,58.4,58.4,29.85,WNW,302,2.4,3.5,100,0.00,BKN,,0.00,WeatherDisplay:10.37,2013-09-21 02:53:00,
2013-09-20 21:58:00,58.5,58.5,29.85,WSW,249,1.8,3.5,100,0.00,BKN,,0.00,WeatherDisplay:10.37,2013-09-21 02:58:00,
2013-09-20 22:03:00,58.5,58.5,29.85,SSW,213,3.9,4.6,100,0.00,BKN,,0.00,WeatherDisplay:10.37,2013-09-21 03:03:00,
2013-09-20 22:08:00,58.4,58.4,29.85,WNW,297,2.4,5.8,100,0.00,BKN,,0.00,WeatherDisplay:10.37,2013-09-21 03:08:00,
2013-09-20 22:13:00,58.3,58.3,29.85,NNW,329,3.4,5.8,100,0.00,BKN,,0.00,WeatherDisplay:10.37,2013-09-21 03:13:00,
2013-09-20 22:18:00,58.3,58.3,29.85,South,184,0.0,0.0,100,0.00,BKN,,0.00,WeatherDisplay:10.37,2013-09-21 03:18:00,
2013-09-20 22:24:00,57.9,57.9,29.85,NW,307,1.8,3.5,100,0.00,BKN,,0.00,WeatherDisplay:10.37,2013-09-21 03:24:00,
2013-09-20 22:29:00,57.7,57.7,29.85,SW,235,1.6,4.6,100,0.00,BKN,,0.00,WeatherDisplay:10.37,2013-09-21 03:29:00,
2013-09-20 22:36:00,57.6,57.6,29.85,West,263,1.7,4.6,100,0.00,BKN,,0.00,WeatherDisplay:10.37,2013-09-21 03:36:00,
2013-09-20 22:43:00,57.6,57.6,29.85,SSW,213,1.3,5.8,100,0.00,BKN,,0.00,WeatherDisplay:10.37,2013-09-21 03:43:00,
2013-09-20 22:48:00,57.3,57.3,29.85,WNW,301,4.5,8.1,100,0.00,BKN,,0.00,WeatherDisplay:10.37,2013-09-21 03:48:00,
2013-09-20 23:07:00,57.0,57.0,29.86,NW,321,2.5,4.6,100,0.00,FEW,,0.00,WeatherDisplay:10.37,2013-09-21 04:07:00,
2013-09-20 23:12:00,56.9,56.9,29.86,ESE,110,1.0,3.2,100,0.00,FEW,,0.00,WeatherDisplay:10.37,2013-09-21 04:12:00,
2013-09-20 23:24:00,56.6,56.6,29.86,WNW,287,0.0,0.0,100,0.00,FEW,,0.00,WeatherDisplay:10.37,2013-09-21 04:24:00,
2013-09-20 23:29:00,56.3,56.3,29.86,NW,305,1.1,2.3,100,0.00,FEW,,0.00,WeatherDisplay:10.37,2013-09-21 04:29:00,
2013-09-20 23:34:00,56.2,56.2,29.85,NNW,332,0.9,2.3,100,0.00,FEW,,0.00,WeatherDisplay:10.37,2013-09-21 04:34:00,
2013-09-20 23:39:00,56.1,56.1,29.86,West,270,1.5,4.6,100,0.00,FEW,,0.00,WeatherDisplay:10.37,2013-09-21 04:39:00,
2013-09-20 23:44:00,56.0,56.0,29.86,WSW,240,2.5,4.6,100,0.00,FEW,,0.00,WeatherDisplay:10.37,2013-09-21 04:44:00,
2013-09-20 23:49:00,55.9,55.9,29.86,WSW,254,0.4,2.3,100,0.00,FEW,,0.00,WeatherDisplay:10.37,2013-09-21 04:49:00,
2013-09-20 23:54:00,55.7,55.7,29.86,West,276,1.9,5.8,100,0.00,FEW,,0.00,WeatherDisplay:10.37,2013-09-21 04:54:00,
2013-09-20 23:59:00,55.9,55.9,29.86,WSW,257,1.5,4.4,100,0.00,FEW,,0.00,WeatherDisplay:10.37,2013-09-21 04:59:00,